Orbital Elements at Epoch 2459200.5 (2020-Dec-17.0) TDB
Reference: JPL 27 (heliocentric ecliptic J2000)
Element | Value | Uncertainty (1-sigma) | Units |
e | .1858655293182372 | 3.2129e-08 | |
a | 2.336111116247985 | 8.3991e-09 | au |
q | 1.901908587080336 | 7.5394e-08 | au |
i | 1.329210685686966 | 3.5725e-06 | deg |
node | 268.9114948088615 | 0.00017363 | deg |
peri | 325.6953102884515 | 0.00017394 | deg |
M | 256.0834814119738 | 1.086e-05 | deg |
tp | 2459576.961664970730 (2021-Dec-28.46166497) | 3.9948e-05 | TDB |
period | 1304.18340828711 3.57 | 7.0335e-06 1.926e-08 | d yr |
n | .2760347951925085 | 1.4887e-09 | deg/d |
Q | 2.770313645415635 | 9.9602e-09 | au |
|
| | Orbit Determination Parameters
Additional Information
|